TimeCST,TemperatureF,Dew PointF,Humidity,Sea Level PressureIn,VisibilityMPH,Wind Direction,Wind SpeedMPH,Gust SpeedMPH,PrecipitationIn,Events,Conditions,WindDirDegrees,DateUTC
12:15 AM,30.2,24.8,80,30.14,10.0,SSW,10.4,-,N/A,,Clear,200,2013-01-22 06:15:00
12:35 AM,30.2,24.8,80,30.14,10.0,South,10.4,-,N/A,,Clear,190,2013-01-22 06:35:00
12:55 AM,30.2,24.8,80,30.13,10.0,SSW,9.2,-,N/A,,Clear,210,2013-01-22 06:55:00
1:15 AM,30.2,24.8,80,30.12,10.0,SSW,11.5,-,N/A,,Clear,210,2013-01-22 07:15:00
1:55 AM,30.2,24.8,80,30.12,10.0,SSW,9.2,-,N/A,,Clear,200,2013-01-22 07:55:00
2:15 AM,30.2,24.8,80,30.12,10.0,SSW,8.1,-,N/A,,Clear,210,2013-01-22 08:15:00
2:35 AM,30.2,23.0,75,30.12,10.0,SSW,8.1,-,N/A,,Clear,200,2013-01-22 08:35:00
2:55 AM,28.4,24.8,86,30.12,10.0,SSW,8.1,-,N/A,,Clear,200,2013-01-22 08:55:00
3:15 AM,28.4,24.8,86,30.12,10.0,SSW,8.1,-,N/A,,Clear,210,2013-01-22 09:15:00
3:35 AM,28.4,23.0,80,30.12,10.0,SSW,6.9,-,N/A,,Clear,200,2013-01-22 09:35:00
3:55 AM,28.4,24.8,86,30.12,10.0,SSW,9.2,-,N/A,,Clear,200,2013-01-22 09:55:00
4:15 AM,28.4,24.8,86,30.11,10.0,SSW,8.1,-,N/A,,Clear,200,2013-01-22 10:15:00
4:35 AM,28.4,23.0,80,30.11,10.0,SSW,8.1,-,N/A,,Clear,200,2013-01-22 10:35:00
4:55 AM,28.4,23.0,80,30.11,10.0,South,6.9,-,N/A,,Clear,190,2013-01-22 10:55:00
5:15 AM,26.6,23.0,86,30.11,10.0,South,5.8,-,N/A,,Clear,180,2013-01-22 11:15:00
5:35 AM,26.6,23.0,86,30.10,10.0,South,8.1,-,N/A,,Clear,190,2013-01-22 11:35:00
5:55 AM,28.4,24.8,86,30.10,10.0,SSW,9.2,-,N/A,,Clear,200,2013-01-22 11:55:00
6:15 AM,28.4,24.8,86,30.10,10.0,SW,8.1,-,N/A,,Clear,220,2013-01-22 12:15:00
6:35 AM,28.4,26.6,93,30.10,10.0,SSW,8.1,-,N/A,,Clear,210,2013-01-22 12:35:00
6:55 AM,28.4,26.6,93,30.10,10.0,SW,9.2,-,N/A,,Clear,220,2013-01-22 12:55:00
7:15 AM,30.2,24.8,80,30.10,10.0,SW,8.1,-,N/A,,Clear,230,2013-01-22 13:15:00
7:35 AM,28.4,24.8,86,30.10,10.0,SW,9.2,-,N/A,,Clear,220,2013-01-22 13:35:00
7:55 AM,28.4,24.8,86,30.10,10.0,SW,10.4,-,N/A,,Clear,230,2013-01-22 13:55:00
8:15 AM,30.2,24.8,80,30.09,10.0,SW,10.4,-,N/A,,Clear,230,2013-01-22 14:15:00
8:35 AM,32.0,26.6,80,30.10,10.0,WSW,10.4,-,N/A,,Clear,250,2013-01-22 14:35:00
8:55 AM,32.0,26.6,80,30.09,10.0,WSW,6.9,-,N/A,,Clear,250,2013-01-22 14:55:00
9:15 AM,33.8,26.6,75,30.10,10.0,West,10.4,-,N/A,,Clear,270,2013-01-22 15:15:00
9:35 AM,35.6,28.4,75,30.11,10.0,West,9.2,-,N/A,,Clear,270,2013-01-22 15:35:00
9:55 AM,39.2,28.4,65,30.12,10.0,West,8.1,-,N/A,,Clear,280,2013-01-22 15:55:00
10:15 AM,42.8,26.6,53,30.13,10.0,NW,10.4,-,N/A,,Clear,310,2013-01-22 16:15:00
10:35 AM,44.6,26.6,49,30.14,10.0,NNW,11.5,-,N/A,,Clear,330,2013-01-22 16:35:00
10:55 AM,46.4,24.8,43,30.15,10.0,NNW,11.5,-,N/A,,Clear,340,2013-01-22 16:55:00
11:15 AM,46.4,23.0,40,30.16,10.0,NNW,9.2,-,N/A,,Clear,330,2013-01-22 17:15:00
11:35 AM,50.0,23.0,35,30.15,10.0,North,5.8,-,N/A,,Clear,350,2013-01-22 17:35:00
11:55 AM,51.8,21.2,30,30.15,10.0,NNW,5.8,-,N/A,,Clear,330,2013-01-22 17:55:00
12:15 PM,53.6,21.2,28,30.14,10.0,NW,4.6,-,N/A,,Clear,310,2013-01-22 18:15:00
12:35 PM,53.6,21.2,28,30.12,10.0,Calm,Calm,-,N/A,,Clear,0,2013-01-22 18:35:00
12:55 PM,55.4,21.2,26,30.11,10.0,Calm,Calm,-,N/A,,Clear,0,2013-01-22 18:55:00
1:15 PM,57.2,21.2,25,30.10,10.0,Calm,Calm,-,N/A,,Clear,0,2013-01-22 19:15:00
1:35 PM,57.2,19.4,23,30.10,10.0,Calm,Calm,-,N/A,,Clear,0,2013-01-22 19:35:00
1:55 PM,59.0,21.2,23,30.09,10.0,Calm,Calm,-,N/A,,Clear,0,2013-01-22 19:55:00
2:15 PM,59.0,21.2,23,30.09,10.0,NE,3.5,-,N/A,,Clear,50,2013-01-22 20:15:00
2:35 PM,60.8,19.4,20,30.08,10.0,ENE,3.5,-,N/A,,Clear,70,2013-01-22 20:35:00
2:55 PM,62.6,19.4,19,30.08,10.0,ENE,5.8,-,N/A,,Clear,60,2013-01-22 20:55:00
3:15 PM,62.6,17.6,18,30.08,10.0,East,6.9,-,N/A,,Clear,80,2013-01-22 21:15:00
3:35 PM,62.6,19.4,19,30.08,10.0,East,6.9,-,N/A,,Clear,90,2013-01-22 21:35:00
3:55 PM,62.6,19.4,19,30.08,10.0,ENE,5.8,-,N/A,,Clear,70,2013-01-22 21:55:00
4:15 PM,60.8,19.4,20,30.09,10.0,ENE,6.9,-,N/A,,Clear,70,2013-01-22 22:15:00
4:35 PM,60.8,21.2,22,30.09,10.0,ENE,8.1,-,N/A,,Clear,70,2013-01-22 22:35:00
4:55 PM,59.0,21.2,23,30.10,10.0,ENE,8.1,-,N/A,,Clear,60,2013-01-22 22:55:00
5:15 PM,57.2,23.0,27,30.10,10.0,ENE,8.1,-,N/A,,Clear,70,2013-01-22 23:15:00
5:35 PM,53.6,23.0,30,30.11,10.0,ENE,6.9,-,N/A,,Clear,60,2013-01-22 23:35:00
5:55 PM,50.0,23.0,35,30.12,10.0,ENE,8.1,-,N/A,,Clear,60,2013-01-22 23:55:00
6:15 PM,46.4,23.0,40,30.12,10.0,ENE,9.2,-,N/A,,Clear,70,2013-01-23 00:15:00
6:35 PM,42.8,23.0,46,30.12,10.0,ENE,8.1,-,N/A,,Clear,70,2013-01-23 00:35:00
6:55 PM,41.0,23.0,49,30.12,10.0,East,9.2,-,N/A,,Clear,90,2013-01-23 00:55:00
7:15 PM,37.4,24.8,60,30.12,10.0,East,8.1,-,N/A,,Clear,90,2013-01-23 01:15:00
7:35 PM,37.4,24.8,60,30.13,10.0,ENE,8.1,-,N/A,,Clear,70,2013-01-23 01:35:00
7:55 PM,37.4,26.6,65,30.13,10.0,ENE,9.2,-,N/A,,Clear,60,2013-01-23 01:55:00
8:15 PM,35.6,24.8,65,30.14,10.0,East,9.2,-,N/A,,Clear,80,2013-01-23 02:15:00
8:35 PM,35.6,24.8,65,30.14,10.0,East,9.2,-,N/A,,Clear,80,2013-01-23 02:35:00
8:55 PM,33.8,24.8,70,30.15,10.0,ENE,9.2,-,N/A,,Clear,70,2013-01-23 02:55:00
9:15 PM,33.8,24.8,70,30.15,10.0,East,9.2,-,N/A,,Clear,80,2013-01-23 03:15:00
9:35 PM,33.8,24.8,70,30.16,10.0,East,8.1,-,N/A,,Clear,80,2013-01-23 03:35:00
9:55 PM,32.0,23.0,69,30.16,10.0,East,5.8,-,N/A,,Clear,80,2013-01-23 03:55:00
10:15 PM,32.0,23.0,69,30.17,10.0,ENE,6.9,-,N/A,,Clear,70,2013-01-23 04:15:00
10:55 PM,32.0,24.8,75,30.18,10.0,East,8.1,-,N/A,,Clear,80,2013-01-23 04:55:00
11:15 PM,32.0,23.0,69,30.17,10.0,East,9.2,-,N/A,,Clear,90,2013-01-23 05:15:00
11:35 PM,32.0,23.0,69,30.17,10.0,East,8.1,-,N/A,,Clear,90,2013-01-23 05:35:00
11:55 PM,32.0,24.8,75,30.18,10.0,East,8.1,-,N/A,,Clear,90,2013-01-23 05:55:00